sat.trackr.live / text

‹ back to catalog

STARLINK-33888

NORAD 63860 · 2025-093AA

PAYLOAD ACTIVE UNKNOWN

§ Identity

Operator
Country
US
Launch date
2025-05-07
Launch site
AFETR
Launch vehicle
Mass (kg)
RCS (m²)

Purposes: comms

External: N2YO · Heavens-Above · Gunter

§ Orbital elements

Epoch: 2026-09-19T18:31:36.367680Z

Period
94.27 min
Inclination
43.0042°
Eccentricity
0.0002292
Mean motion
15.27596880 rev/d
Perigee alt
481.4 km
Apogee alt
484.6 km
Semi-major
6,861.1 km
B*
4.3731e-4
RAAN
61.8826°
Arg perigee
268.4587°
Mean anomaly
91.6002°
Rev number
7,765

§ Raw data

STARLINK-338881 63860U 25093AA  26262.77194870  .00011797  00000+0  43731-3 0  99982 63860  43.0042  61.8826 0002292 268.4587  91.6002 15.27596880 77658

JSON: /api/v1/satellites/63860 · /tle

For live sub-satellite position, see the globe view (requires WebGL).

§ Visibility from observer

Set your observer location to see the next 7 days of passes ≥ 10°. The values pass through the URL so the page stays shareable.

No JS? Fill the form by hand. The geolocation button needs JavaScript.